Location: Carite
(10.3909°N, 67.0102°W)
Time: 04:23:20
(UTC+00:00)

Milstar 3 - Pass Details

Date: 08 September 2024
Orbit: 1099 x 5146 km, 28.2° (Epoch: 09 October)

Event Time Altitude Azimuth Distance (km) Brightness Sun altitude
Rises 22:47:55 0° 292° (WNW) 6,182 8.5 -4.6°
Reaches altitude 10° 22:52:45 10° 287° (WNW) 4,589 7.7 -5.8°
Maximum altitude 23:03:10 50° 215° (SW) 1,714 4.0 -8.3°
Drops below altitude 10° 23:09:55 10° 140° (SE) 3,015 4.6 -9.9°
Enters shadow 23:11:30 - 136° (SE) 3,574 5.0 -10.3°
